Time,TemperatureF,DewpointF,PressureIn,WindDirection,WindDirectionDegrees,WindSpeedMPH,WindSpeedGustMPH,Humidity,HourlyPrecipIn,Conditions,Clouds,dailyrainin,SoftwareType,DateUTC
2013-08-06 00:02:00,56.7,12.4,0.00,SSW,212,0.0,0.0,17,-99.99,,---,-99.99,VWS V14.01,2013-08-06 07:02:00,
2013-08-06 00:07:00,56.8,12.5,0.00,SW,224,0.0,0.0,17,-99.99,,---,-99.99,VWS V14.01,2013-08-06 07:07:00,
2013-08-06 00:12:00,56.8,12.5,0.00,SW,214,0.0,0.0,17,-99.99,,---,-99.99,VWS V14.01,2013-08-06 07:12:00,
2013-08-06 00:17:00,56.8,12.5,0.00,SW,214,0.0,0.0,17,-99.99,,---,-99.99,VWS V14.01,2013-08-06 07:17:00,
2013-08-06 00:22:00,56.8,12.5,0.00,SSW,204,0.0,0.0,17,-99.99,,---,-99.99,VWS V14.01,2013-08-06 07:22:00,
2013-08-06 00:27:00,56.8,12.5,0.00,SSW,195,0.0,0.0,17,-99.99,,---,-99.99,VWS V14.01,2013-08-06 07:27:00,
2013-08-06 00:32:00,56.7,12.4,0.00,SSW,204,0.0,0.0,17,-99.99,,---,-99.99,VWS V14.01,2013-08-06 07:32:00,
2013-08-06 00:37:00,56.7,12.4,0.00,SSW,204,0.0,0.0,17,-99.99,,---,-99.99,VWS V14.01,2013-08-06 07:37:00,
2013-08-06 00:42:00,56.5,12.2,0.00,SW,223,0.0,0.0,17,-99.99,,---,-99.99,VWS V14.01,2013-08-06 07:42:00,
2013-08-06 00:47:00,56.5,12.2,0.00,SW,218,0.0,0.0,17,-99.99,,---,-99.99,VWS V14.01,2013-08-06 07:47:00,
2013-08-06 00:52:00,56.3,12.1,0.00,SW,218,0.0,0.0,17,-99.99,,---,-99.99,VWS V14.01,2013-08-06 07:52:00,
2013-08-06 00:57:00,56.7,12.4,0.00,SW,220,0.0,0.0,17,-99.99,,---,-99.99,VWS V14.01,2013-08-06 07:57:00,
2013-08-06 01:02:00,56.3,12.1,0.00,SSW,211,0.0,0.0,17,-99.99,,---,-99.99,VWS V14.01,2013-08-06 08:02:00,
2013-08-06 01:07:00,57.0,12.7,0.00,SW,217,0.0,0.0,17,-99.99,,---,-99.99,VWS V14.01,2013-08-06 08:07:00,
2013-08-06 01:12:00,57.0,12.7,0.00,SW,217,0.0,0.0,17,-99.99,,---,-99.99,VWS V14.01,2013-08-06 08:12:00,
2013-08-06 01:17:00,56.5,12.2,0.00,SSW,206,0.0,0.0,17,-99.99,,---,-99.99,VWS V14.01,2013-08-06 08:17:00,
2013-08-06 01:22:00,56.5,12.2,0.00,South,189,0.0,0.0,17,-99.99,,---,-99.99,VWS V14.01,2013-08-06 08:22:00,
2013-08-06 01:27:00,56.5,12.2,0.00,South,189,0.0,0.0,17,-99.99,,---,-99.99,VWS V14.01,2013-08-06 08:27:00,
2013-08-06 01:32:00,56.7,12.4,0.00,South,172,0.0,0.0,17,-99.99,,---,-99.99,VWS V14.01,2013-08-06 08:32:00,
2013-08-06 01:37:00,56.7,12.4,0.00,South,172,0.0,0.0,17,-99.99,,---,-99.99,VWS V14.01,2013-08-06 08:37:00,
2013-08-06 01:42:00,56.7,12.4,0.00,South,173,0.0,0.0,17,-99.99,,---,-99.99,VWS V14.01,2013-08-06 08:42:00,
2013-08-06 01:47:00,57.0,12.7,0.00,SSE,164,0.0,0.0,17,-99.99,,---,-99.99,VWS V14.01,2013-08-06 08:47:00,
2013-08-06 01:52:00,57.2,12.8,0.00,SSE,164,0.0,0.0,17,-99.99,,---,-99.99,VWS V14.01,2013-08-06 08:52:00,
2013-08-06 01:57:00,57.2,12.8,0.00,South,181,0.0,0.0,17,-99.99,,---,-99.99,VWS V14.01,2013-08-06 08:57:00,
2013-08-06 02:02:00,57.9,13.4,0.00,South,181,0.0,0.0,17,-99.99,,---,-99.99,VWS V14.01,2013-08-06 09:02:00,
2013-08-06 02:07:00,57.7,13.2,0.00,SSE,163,0.0,0.0,17,-99.99,,---,-99.99,VWS V14.01,2013-08-06 09:07:00,
2013-08-06 02:12:00,57.7,13.2,0.00,SSE,163,0.0,0.0,17,-99.99,,---,-99.99,VWS V14.01,2013-08-06 09:12:00,
2013-08-06 02:17:00,58.1,13.5,0.00,South,174,0.0,0.0,17,-99.99,,---,-99.99,VWS V14.01,2013-08-06 09:17:00,
2013-08-06 02:22:00,58.3,13.7,0.00,South,184,0.0,0.0,17,-99.99,,---,-99.99,VWS V14.01,2013-08-06 09:22:00,
2013-08-06 02:27:00,58.3,13.7,0.00,South,184,0.0,0.0,17,-99.99,,---,-99.99,VWS V14.01,2013-08-06 09:27:00,
2013-08-06 02:32:00,58.5,13.8,0.00,SSE,160,0.0,0.0,17,-99.99,,---,-99.99,VWS V14.01,2013-08-06 09:32:00,
2013-08-06 02:37:00,58.5,13.8,0.00,SSE,160,0.0,0.0,17,-99.99,,---,-99.99,VWS V14.01,2013-08-06 09:37:00,
2013-08-06 02:42:00,58.6,14.0,0.00,South,183,0.0,0.0,17,-99.99,,---,-99.99,VWS V14.01,2013-08-06 09:42:00,
2013-08-06 02:47:00,58.6,14.0,0.00,South,183,0.0,0.0,17,-99.99,,---,-99.99,VWS V14.01,2013-08-06 09:47:00,
2013-08-06 02:52:00,58.5,13.8,0.00,South,183,0.0,0.0,17,-99.99,,---,-99.99,VWS V14.01,2013-08-06 09:52:00,
2013-08-06 02:57:00,58.5,13.8,0.00,South,183,0.0,0.0,17,-99.99,,---,-99.99,VWS V14.01,2013-08-06 09:57:00,
2013-08-06 03:02:00,57.9,13.4,0.00,South,183,0.0,0.0,17,-99.99,,---,-99.99,VWS V14.01,2013-08-06 10:02:00,
2013-08-06 03:07:00,58.3,13.7,0.00,South,183,0.0,0.0,17,-99.99,,---,-99.99,VWS V14.01,2013-08-06 10:07:00,
2013-08-06 03:12:00,58.3,13.7,0.00,South,183,0.0,0.0,17,-99.99,,---,-99.99,VWS V14.01,2013-08-06 10:12:00,
2013-08-06 03:17:00,57.9,13.4,0.00,South,183,0.0,0.0,17,-99.99,,---,-99.99,VWS V14.01,2013-08-06 10:17:00,
2013-08-06 03:22:00,57.9,13.4,0.00,South,183,0.0,0.0,17,-99.99,,---,-99.99,VWS V14.01,2013-08-06 10:22:00,
2013-08-06 03:27:00,57.2,12.8,0.00,South,183,0.0,0.0,17,-99.99,,---,-99.99,VWS V14.01,2013-08-06 10:27:00,
2013-08-06 03:32:00,57.2,12.8,0.00,South,183,0.0,0.0,17,-99.99,,---,-99.99,VWS V14.01,2013-08-06 10:32:00,
2013-08-06 03:37:00,56.1,11.9,0.00,South,183,0.0,0.0,17,-99.99,,---,-99.99,VWS V14.01,2013-08-06 10:37:00,
2013-08-06 03:42:00,56.3,12.1,0.00,South,183,0.0,0.0,17,-99.99,,---,-99.99,VWS V14.01,2013-08-06 10:42:00,
2013-08-06 03:47:00,56.3,12.1,0.00,South,183,0.0,0.0,17,-99.99,,---,-99.99,VWS V14.01,2013-08-06 10:47:00,
2013-08-06 03:52:00,56.1,11.9,0.00,South,183,0.0,0.0,17,-99.99,,---,-99.99,VWS V14.01,2013-08-06 10:52:00,
2013-08-06 03:57:00,56.1,11.9,0.00,South,183,0.0,0.0,17,-99.99,,---,-99.99,VWS V14.01,2013-08-06 10:57:00,
2013-08-06 04:02:00,56.1,11.9,0.00,South,183,0.0,0.0,17,-99.99,,---,-99.99,VWS V14.01,2013-08-06 11:02:00,
2013-08-06 04:07:00,56.3,12.1,0.00,South,183,0.0,0.0,17,-99.99,,---,-99.99,VWS V14.01,2013-08-06 11:07:00,
2013-08-06 04:12:00,56.3,12.1,0.00,South,183,0.0,0.0,17,-99.99,,---,-99.99,VWS V14.01,2013-08-06 11:12:00,
2013-08-06 04:17:00,55.9,11.8,0.00,South,183,0.0,0.0,17,-99.99,,---,-99.99,VWS V14.01,2013-08-06 11:17:00,
2013-08-06 04:22:00,55.9,11.8,0.00,South,183,0.0,0.0,17,-99.99,,---,-99.99,VWS V14.01,2013-08-06 11:22:00,
2013-08-06 04:27:00,56.1,11.9,0.00,South,183,0.0,0.0,17,-99.99,,---,-99.99,VWS V14.01,2013-08-06 11:27:00,
2013-08-06 04:32:00,56.1,11.9,0.00,South,183,0.0,0.0,17,-99.99,,---,-99.99,VWS V14.01,2013-08-06 11:32:00,
2013-08-06 04:37:00,56.1,11.9,0.00,South,183,0.0,0.0,17,-99.99,,---,-99.99,VWS V14.01,2013-08-06 11:37:00,
2013-08-06 04:42:00,54.9,12.2,0.00,South,183,0.0,0.0,18,-99.99,,---,-99.99,VWS V14.01,2013-08-06 11:42:00,
2013-08-06 04:47:00,54.9,12.2,0.00,South,183,0.0,0.0,18,-99.99,,---,-99.99,VWS V14.01,2013-08-06 11:47:00,
2013-08-06 04:52:00,55.4,11.3,0.00,South,183,0.0,0.0,17,-99.99,,---,-99.99,VWS V14.01,2013-08-06 11:52:00,
2013-08-06 04:57:00,55.4,11.3,0.00,South,183,0.0,0.0,17,-99.99,,---,-99.99,VWS V14.01,2013-08-06 11:57:00,
2013-08-06 05:02:00,56.1,11.9,0.00,South,183,0.0,0.0,17,-99.99,,---,-99.99,VWS V14.01,2013-08-06 12:02:00,
2013-08-06 05:07:00,56.3,12.1,0.00,South,183,0.0,0.0,17,-99.99,,---,-99.99,VWS V14.01,2013-08-06 12:07:00,
2013-08-06 05:12:00,56.3,12.1,0.00,South,183,0.0,0.0,17,-99.99,,---,-99.99,VWS V14.01,2013-08-06 12:12:00,
2013-08-06 05:17:00,56.5,12.2,0.00,South,183,0.0,0.0,17,-99.99,,---,-99.99,VWS V14.01,2013-08-06 12:17:00,
2013-08-06 05:22:00,56.5,12.2,0.00,South,183,0.0,0.0,17,-99.99,,---,-99.99,VWS V14.01,2013-08-06 12:22:00,
2013-08-06 05:27:00,56.3,12.1,0.00,South,183,0.0,0.0,17,-99.99,,---,-99.99,VWS V14.01,2013-08-06 12:27:00,
2013-08-06 05:33:00,56.3,12.1,0.00,South,183,0.0,0.0,17,-99.99,,---,-99.99,VWS V14.01,2013-08-06 12:33:00,
2013-08-06 05:38:00,56.3,12.1,0.00,South,183,0.0,0.0,17,-99.99,,---,-99.99,VWS V14.01,2013-08-06 12:38:00,
2013-08-06 05:43:00,56.1,11.9,0.00,South,183,0.0,0.0,17,-99.99,,---,-99.99,VWS V14.01,2013-08-06 12:43:00,
2013-08-06 05:48:00,56.1,11.9,0.00,South,183,0.0,0.0,17,-99.99,,---,-99.99,VWS V14.01,2013-08-06 12:48:00,
2013-08-06 05:53:00,55.8,11.6,0.00,South,183,0.0,0.0,17,-99.99,,---,-99.99,VWS V14.01,2013-08-06 12:53:00,
2013-08-06 05:58:00,55.8,11.6,0.00,South,183,0.0,0.0,17,-99.99,,---,-99.99,VWS V14.01,2013-08-06 12:58:00,
2013-08-06 06:03:00,56.1,11.9,0.00,South,183,0.0,0.0,17,-99.99,,---,-99.99,VWS V14.01,2013-08-06 13:03:00,
2013-08-06 06:08:00,56.3,12.1,0.00,SW,230,0.0,0.0,17,-99.99,,---,-99.99,VWS V14.01,2013-08-06 13:08:00,
2013-08-06 06:13:00,56.3,12.1,0.00,SW,230,0.0,0.0,17,-99.99,,---,-99.99,VWS V14.01,2013-08-06 13:13:00,
2013-08-06 06:18:00,56.7,12.4,0.00,SW,230,0.0,0.0,17,-99.99,,---,-99.99,VWS V14.01,2013-08-06 13:18:00,
2013-08-06 06:23:00,56.7,12.4,0.00,SW,230,0.0,0.0,17,-99.99,,---,-99.99,VWS V14.01,2013-08-06 13:23:00,
2013-08-06 06:28:00,56.8,12.5,0.00,SW,230,0.0,0.0,17,-99.99,,---,-99.99,VWS V14.01,2013-08-06 13:28:00,
2013-08-06 06:33:00,56.8,12.5,0.00,SW,230,0.0,0.0,17,-99.99,,---,-99.99,VWS V14.01,2013-08-06 13:33:00,
2013-08-06 06:38:00,57.4,12.9,0.00,SW,230,0.0,0.0,17,-99.99,,---,-99.99,VWS V14.01,2013-08-06 13:38:00,
2013-08-06 06:43:00,58.5,13.8,0.00,SW,230,0.0,0.0,17,-99.99,,---,-99.99,VWS V14.01,2013-08-06 13:43:00,
2013-08-06 06:48:00,58.5,13.8,0.00,SW,230,0.0,0.0,17,-99.99,,---,-99.99,VWS V14.01,2013-08-06 13:48:00,
2013-08-06 06:53:00,59.5,14.7,0.00,SW,230,0.0,0.0,17,-99.99,,---,-99.99,VWS V14.01,2013-08-06 13:53:00,
2013-08-06 06:58:00,59.5,14.7,0.00,SW,230,0.0,0.0,17,-99.99,,---,-99.99,VWS V14.01,2013-08-06 13:58:00,
2013-08-06 07:03:00,60.3,15.3,0.00,SW,230,0.0,0.0,17,-99.99,,---,-99.99,VWS V14.01,2013-08-06 14:03:00,
2013-08-06 07:08:00,60.3,15.3,0.00,SW,230,0.0,0.0,17,-99.99,,---,-99.99,VWS V14.01,2013-08-06 14:08:00,
2013-08-06 07:13:00,60.6,15.6,0.00,SW,230,0.0,0.0,17,-99.99,,---,-99.99,VWS V14.01,2013-08-06 14:13:00,
2013-08-06 07:18:00,60.6,15.6,0.00,SW,230,0.0,0.0,17,-99.99,,---,-99.99,VWS V14.01,2013-08-06 14:18:00,
2013-08-06 07:23:00,61.0,14.5,0.00,SW,230,0.0,0.0,16,-99.99,,---,-99.99,VWS V14.01,2013-08-06 14:23:00,
2013-08-06 07:28:00,61.5,14.9,0.00,SW,230,0.0,0.0,16,-99.99,,---,-99.99,VWS V14.01,2013-08-06 14:28:00,
2013-08-06 07:33:00,61.5,14.9,0.00,SW,230,0.0,0.0,16,-99.99,,---,-99.99,VWS V14.01,2013-08-06 14:33:00,
2013-08-06 07:38:00,62.1,15.4,0.00,SW,230,0.0,0.0,16,-99.99,,---,-99.99,VWS V14.01,2013-08-06 14:38:00,
2013-08-06 07:43:00,62.1,15.4,0.00,SW,230,0.0,0.0,16,-99.99,,---,-99.99,VWS V14.01,2013-08-06 14:43:00,
2013-08-06 07:48:00,62.6,15.8,0.00,SW,230,0.0,0.0,16,-99.99,,---,-99.99,VWS V14.01,2013-08-06 14:48:00,
2013-08-06 07:53:00,63.0,16.1,0.00,SW,230,0.0,0.0,16,-99.99,,---,-99.99,VWS V14.01,2013-08-06 14:53:00,
2013-08-06 07:58:00,63.1,16.2,0.00,SW,230,0.0,0.0,16,-99.99,,---,-99.99,VWS V14.01,2013-08-06 14:58:00,
2013-08-06 08:03:00,63.3,16.4,0.00,SW,230,0.0,0.0,16,-99.99,,---,-99.99,VWS V14.01,2013-08-06 15:03:00,
2013-08-06 08:08:00,63.3,16.4,0.00,SW,230,0.0,0.0,16,-99.99,,---,-99.99,VWS V14.01,2013-08-06 15:08:00,
2013-08-06 08:13:00,63.9,16.8,0.00,SW,230,0.0,0.0,16,-99.99,,---,-99.99,VWS V14.01,2013-08-06 15:13:00,
2013-08-06 08:18:00,64.2,17.1,0.00,SW,230,0.0,0.0,16,-99.99,,---,-99.99,VWS V14.01,2013-08-06 15:18:00,
2013-08-06 08:23:00,64.2,17.1,0.00,SW,235,0.0,0.0,16,-99.99,,---,-99.99,VWS V14.01,2013-08-06 15:23:00,
2013-08-06 08:28:00,64.6,15.9,0.00,SW,235,0.0,0.0,15,-99.99,,---,-99.99,VWS V14.01,2013-08-06 15:28:00,
2013-08-06 08:33:00,65.1,16.4,0.00,SW,235,0.0,0.0,15,-99.99,,---,-99.99,VWS V14.01,2013-08-06 15:33:00,
2013-08-06 08:38:00,65.1,16.4,0.00,SW,235,0.0,0.0,15,-99.99,,---,-99.99,VWS V14.01,2013-08-06 15:38:00,
2013-08-06 08:43:00,65.1,16.4,0.00,SW,235,0.0,0.0,15,-99.99,,---,-99.99,VWS V14.01,2013-08-06 15:43:00,
2013-08-06 08:48:00,65.1,16.4,0.00,SW,222,0.0,0.0,15,-99.99,,---,-99.99,VWS V14.01,2013-08-06 15:48:00,
2013-08-06 08:53:00,66.2,17.2,0.00,SW,222,0.0,0.0,15,-99.99,,---,-99.99,VWS V14.01,2013-08-06 15:53:00,
2013-08-06 08:58:00,66.2,17.2,0.00,SSW,198,0.0,0.0,15,-99.99,,---,-99.99,VWS V14.01,2013-08-06 15:58:00,
2013-08-06 09:03:00,66.2,17.2,0.00,SSW,194,0.0,0.0,15,-99.99,,---,-99.99,VWS V14.01,2013-08-06 16:03:00,
2013-08-06 09:08:00,66.2,17.2,0.00,SSW,208,0.0,0.0,15,-99.99,,---,-99.99,VWS V14.01,2013-08-06 16:08:00,
2013-08-06 09:13:00,66.9,17.8,0.00,SW,233,0.0,0.0,15,-99.99,,---,-99.99,VWS V14.01,2013-08-06 16:13:00,
2013-08-06 09:18:00,67.1,17.9,0.00,SW,217,0.0,0.0,15,-99.99,,---,-99.99,VWS V14.01,2013-08-06 16:18:00,
2013-08-06 09:23:00,67.1,17.9,0.00,SW,218,0.0,0.0,15,-99.99,,---,-99.99,VWS V14.01,2013-08-06 16:23:00,
2013-08-06 09:28:00,67.1,17.9,0.00,SW,231,0.0,0.0,15,-99.99,,---,-99.99,VWS V14.01,2013-08-06 16:28:00,
2013-08-06 09:33:00,67.1,17.9,0.00,SW,214,0.0,0.0,15,-99.99,,---,-99.99,VWS V14.01,2013-08-06 16:33:00,
2013-08-06 09:38:00,67.1,17.9,0.00,SSW,203,0.0,0.0,15,-99.99,,---,-99.99,VWS V14.01,2013-08-06 16:38:00,
2013-08-06 09:43:00,67.1,17.9,0.00,South,187,0.0,0.0,15,-99.99,,---,-99.99,VWS V14.01,2013-08-06 16:43:00,
2013-08-06 09:48:00,68.7,19.2,0.00,SSW,198,0.0,0.0,15,-99.99,,---,-99.99,VWS V14.01,2013-08-06 16:48:00,
2013-08-06 09:53:00,68.7,19.2,0.00,SSW,196,0.0,0.0,15,-99.99,,---,-99.99,VWS V14.01,2013-08-06 16:53:00,
2013-08-06 09:58:00,68.7,19.2,0.00,SSW,207,0.0,0.0,15,-99.99,,---,-99.99,VWS V14.01,2013-08-06 16:58:00,
2013-08-06 10:03:00,68.7,19.2,0.00,SSW,209,0.0,0.0,15,-99.99,,---,-99.99,VWS V14.01,2013-08-06 17:03:00,
2013-08-06 10:08:00,68.7,19.2,0.00,SSW,211,0.0,0.0,15,-99.99,,---,-99.99,VWS V14.01,2013-08-06 17:08:00,
2013-08-06 10:13:00,68.7,19.2,0.00,SW,214,0.0,0.0,15,-99.99,,---,-99.99,VWS V14.01,2013-08-06 17:13:00,
2013-08-06 10:18:00,68.7,19.2,0.00,South,176,0.0,0.0,15,-99.99,,---,-99.99,VWS V14.01,2013-08-06 17:18:00,
2013-08-06 10:23:00,72.5,20.6,0.00,ESE,118,0.0,0.0,14,-99.99,,---,-99.99,VWS V14.01,2013-08-06 17:23:00,
2013-08-06 10:27:00,72.5,20.6,0.00,ESE,118,0.0,0.0,14,-99.99,,---,-99.99,VWS V14.01,2013-08-06 17:27:00,
2013-08-06 10:32:00,72.5,20.6,0.00,SSE,166,0.0,0.0,14,-99.99,,---,-99.99,VWS V14.01,2013-08-06 17:32:00,
2013-08-06 10:37:00,72.5,20.6,0.00,SE,142,0.0,0.0,14,-99.99,,---,-99.99,VWS V14.01,2013-08-06 17:37:00,
2013-08-06 10:42:00,72.5,20.6,0.00,SW,222,0.0,0.0,14,-99.99,,---,-99.99,VWS V14.01,2013-08-06 17:42:00,
2013-08-06 10:47:00,72.5,20.6,0.00,SW,216,0.0,0.0,14,-99.99,,---,-99.99,VWS V14.01,2013-08-06 17:47:00,
2013-08-06 10:52:00,72.5,20.6,0.00,ESE,119,0.0,0.0,14,-99.99,,---,-99.99,VWS V14.01,2013-08-06 17:52:00,
2013-08-06 10:57:00,72.5,20.6,0.00,SSW,208,0.0,0.0,14,-99.99,,---,-99.99,VWS V14.01,2013-08-06 17:57:00,
2013-08-06 11:02:00,76.5,25.4,0.00,SSE,160,0.0,0.0,15,-99.99,,---,-99.99,VWS V14.01,2013-08-06 18:02:00,
2013-08-06 11:07:00,76.5,25.4,0.00,SW,218,0.0,0.0,15,-99.99,,---,-99.99,VWS V14.01,2013-08-06 18:07:00,
2013-08-06 11:12:00,76.5,25.4,0.00,SW,218,0.0,0.0,15,-99.99,,---,-99.99,VWS V14.01,2013-08-06 18:12:00,
2013-08-06 11:17:00,76.5,25.4,0.00,SE,138,0.0,0.0,15,-99.99,,---,-99.99,VWS V14.01,2013-08-06 18:17:00,
2013-08-06 11:22:00,76.5,25.4,0.00,South,191,0.0,0.0,15,-99.99,,---,-99.99,VWS V14.01,2013-08-06 18:22:00,
2013-08-06 11:27:00,76.5,25.4,0.00,SSE,156,0.0,0.0,15,-99.99,,---,-99.99,VWS V14.01,2013-08-06 18:27:00,
2013-08-06 11:32:00,76.5,25.4,0.00,SSE,167,0.0,0.0,15,-99.99,,---,-99.99,VWS V14.01,2013-08-06 18:32:00,
2013-08-06 11:37:00,76.5,25.4,0.00,SSW,192,0.0,0.0,15,-99.99,,---,-99.99,VWS V14.01,2013-08-06 18:37:00,
2013-08-06 11:42:00,78.6,27.1,0.00,SSE,158,0.0,0.0,15,-99.99,,---,-99.99,VWS V14.01,2013-08-06 18:42:00,
2013-08-06 11:47:00,78.6,27.1,0.00,SSE,158,0.0,0.0,15,-99.99,,---,-99.99,VWS V14.01,2013-08-06 18:47:00,
2013-08-06 11:52:00,78.6,27.1,0.00,SSE,156,0.0,0.0,15,-99.99,,---,-99.99,VWS V14.01,2013-08-06 18:52:00,
2013-08-06 11:57:00,78.6,27.1,0.00,South,182,0.0,0.0,15,-99.99,,---,-99.99,VWS V14.01,2013-08-06 18:57:00,
2013-08-06 12:02:00,78.6,27.1,0.00,South,174,0.0,0.0,15,-99.99,,---,-99.99,VWS V14.01,2013-08-06 19:02:00,
2013-08-06 12:07:00,78.6,27.1,0.00,West,259,0.0,0.0,15,-99.99,,---,-99.99,VWS V14.01,2013-08-06 19:07:00,
2013-08-06 12:12:00,78.6,27.1,0.00,SW,214,0.0,0.0,15,-99.99,,---,-99.99,VWS V14.01,2013-08-06 19:12:00,
2013-08-06 12:17:00,77.9,26.6,0.00,South,169,0.0,0.0,15,-99.99,,---,-99.99,VWS V14.01,2013-08-06 19:17:00,
2013-08-06 12:22:00,77.9,26.6,0.00,NE,55,0.0,0.0,15,-99.99,,---,-99.99,VWS V14.01,2013-08-06 19:22:00,
2013-08-06 12:27:00,77.9,26.6,0.00,North,357,0.0,0.0,15,-99.99,,---,-99.99,VWS V14.01,2013-08-06 19:27:00,
2013-08-06 12:32:00,77.9,26.6,0.00,WSW,258,0.0,0.0,15,-99.99,,---,-99.99,VWS V14.01,2013-08-06 19:32:00,
2013-08-06 12:37:00,77.9,26.6,0.00,SW,234,0.0,0.0,15,-99.99,,---,-99.99,VWS V14.01,2013-08-06 19:37:00,
2013-08-06 12:42:00,77.9,26.6,0.00,SSE,158,0.0,0.0,15,-99.99,,---,-99.99,VWS V14.01,2013-08-06 19:42:00,
2013-08-06 12:47:00,77.9,26.6,0.00,SSW,195,0.0,0.0,15,-99.99,,---,-99.99,VWS V14.01,2013-08-06 19:47:00,
2013-08-06 12:52:00,81.7,27.9,0.00,SSW,192,0.0,0.0,14,-99.99,,---,-99.99,VWS V14.01,2013-08-06 19:52:00,
2013-08-06 12:57:00,81.7,27.9,0.00,SSW,201,0.0,0.0,14,-99.99,,---,-99.99,VWS V14.01,2013-08-06 19:57:00,
2013-08-06 13:02:00,81.0,27.3,0.00,SE,139,0.0,0.0,14,-99.99,,---,-99.99,VWS V14.01,2013-08-06 20:02:00,
2013-08-06 13:07:00,81.0,27.3,0.00,SSW,205,0.0,0.0,14,-99.99,,---,-99.99,VWS V14.01,2013-08-06 20:07:00,
2013-08-06 13:12:00,81.0,27.3,0.00,South,191,0.0,0.0,14,-99.99,,---,-99.99,VWS V14.01,2013-08-06 20:12:00,
2013-08-06 13:18:00,81.0,27.3,0.00,SSE,164,0.0,0.0,14,-99.99,,---,-99.99,VWS V14.01,2013-08-06 20:18:00,
2013-08-06 13:23:00,82.0,28.2,0.00,SE,129,0.0,0.0,14,-99.99,,---,-99.99,VWS V14.01,2013-08-06 20:23:00,
2013-08-06 13:28:00,82.0,28.2,0.00,SSE,166,0.0,0.0,14,-99.99,,---,-99.99,VWS V14.01,2013-08-06 20:28:00,
2013-08-06 13:32:00,81.5,27.8,0.00,ENE,75,0.0,0.0,14,-99.99,,---,-99.99,VWS V14.01,2013-08-06 20:32:00,
2013-08-06 13:33:00,81.5,27.8,0.00,SE,141,0.0,0.0,14,-99.99,,---,-99.99,VWS V14.01,2013-08-06 20:33:00,
2013-08-06 13:38:00,81.5,27.8,0.00,South,185,0.0,0.0,14,-99.99,,---,-99.99,VWS V14.01,2013-08-06 20:38:00,
2013-08-06 13:43:00,81.5,27.8,0.00,SE,138,0.0,0.0,14,-99.99,,---,-99.99,VWS V14.01,2013-08-06 20:43:00,
2013-08-06 13:48:00,81.5,27.8,0.00,SE,138,0.0,0.0,14,-99.99,,---,-99.99,VWS V14.01,2013-08-06 20:48:00,
2013-08-06 13:53:00,81.5,27.8,0.00,SE,124,0.0,0.0,14,-99.99,,---,-99.99,VWS V14.01,2013-08-06 20:53:00,
2013-08-06 13:58:00,81.5,27.8,0.00,North,6,0.0,0.0,14,-99.99,,---,-99.99,VWS V14.01,2013-08-06 20:58:00,
2013-08-06 14:03:00,81.5,27.8,0.00,ESE,114,0.0,0.0,14,-99.99,,---,-99.99,VWS V14.01,2013-08-06 21:03:00,
2013-08-06 14:08:00,82.8,28.8,0.00,ESE,118,0.0,0.0,14,-99.99,,---,-99.99,VWS V14.01,2013-08-06 21:08:00,
2013-08-06 14:13:00,82.8,28.8,0.00,ESE,118,0.0,0.0,14,-99.99,,---,-99.99,VWS V14.01,2013-08-06 21:13:00,
2013-08-06 14:18:00,83.1,29.0,0.00,East,91,0.0,0.0,14,-99.99,,---,-99.99,VWS V14.01,2013-08-06 21:18:00,
2013-08-06 14:23:00,83.1,29.0,0.00,NE,35,0.0,0.0,14,-99.99,,---,-99.99,VWS V14.01,2013-08-06 21:23:00,
2013-08-06 14:28:00,83.1,29.0,0.00,NE,41,0.0,0.0,14,-99.99,,---,-99.99,VWS V14.01,2013-08-06 21:28:00,
2013-08-06 14:33:00,83.1,29.0,0.00,ENE,69,0.0,0.0,14,-99.99,,---,-99.99,VWS V14.01,2013-08-06 21:33:00,
2013-08-06 14:38:00,83.1,29.0,0.00,SE,143,0.0,0.0,14,-99.99,,---,-99.99,VWS V14.01,2013-08-06 21:38:00,
2013-08-06 14:43:00,80.2,28.4,0.00,East,82,0.0,0.0,15,-99.99,,---,-99.99,VWS V14.01,2013-08-06 21:43:00,
2013-08-06 14:48:00,80.2,28.4,0.00,East,82,0.0,0.0,15,-99.99,,---,-99.99,VWS V14.01,2013-08-06 21:48:00,
2013-08-06 14:53:00,81.0,27.3,0.00,South,179,0.0,0.0,14,-99.99,,---,-99.99,VWS V14.01,2013-08-06 21:53:00,
2013-08-06 14:58:00,81.0,27.3,0.00,SSE,164,0.0,0.0,14,-99.99,,---,-99.99,VWS V14.01,2013-08-06 21:58:00,
2013-08-06 15:03:00,81.0,27.3,0.00,SE,145,0.0,0.0,14,-99.99,,---,-99.99,VWS V14.01,2013-08-06 22:03:00,
2013-08-06 15:08:00,81.0,27.3,0.00,SSE,164,0.0,0.0,14,-99.99,,---,-99.99,VWS V14.01,2013-08-06 22:08:00,
2013-08-06 15:13:00,81.0,27.3,0.00,SE,130,0.0,0.0,14,-99.99,,---,-99.99,VWS V14.01,2013-08-06 22:13:00,
2013-08-06 15:18:00,81.0,27.3,0.00,SSE,158,0.0,0.0,14,-99.99,,---,-99.99,VWS V14.01,2013-08-06 22:18:00,
2013-08-06 15:23:00,79.3,27.7,0.00,SSE,158,0.0,0.0,15,-99.99,,---,-99.99,VWS V14.01,2013-08-06 22:23:00,
2013-08-06 15:28:00,78.4,27.0,0.00,East,101,0.0,0.0,15,-99.99,,---,-99.99,VWS V14.01,2013-08-06 22:28:00,
2013-08-06 15:33:00,78.4,27.0,0.00,SSE,155,0.0,0.0,15,-99.99,,---,-99.99,VWS V14.01,2013-08-06 22:33:00,
2013-08-06 15:38:00,78.4,27.0,0.00,SSE,155,0.0,0.0,15,-99.99,,---,-99.99,VWS V14.01,2013-08-06 22:38:00,
2013-08-06 15:43:00,78.4,27.0,0.00,South,175,0.0,0.0,15,-99.99,,---,-99.99,VWS V14.01,2013-08-06 22:43:00,
2013-08-06 15:48:00,78.4,27.0,0.00,South,187,0.0,0.0,15,-99.99,,---,-99.99,VWS V14.01,2013-08-06 22:48:00,
2013-08-06 15:53:00,78.4,27.0,0.00,SSW,199,0.0,0.0,15,-99.99,,---,-99.99,VWS V14.01,2013-08-06 22:53:00,
2013-08-06 15:58:00,75.0,25.8,0.00,SSW,199,0.0,0.0,16,-99.99,,---,-99.99,VWS V14.01,2013-08-06 22:58:00,
2013-08-06 16:03:00,75.0,25.8,0.00,South,185,0.0,0.0,16,-99.99,,---,-99.99,VWS V14.01,2013-08-06 23:03:00,
2013-08-06 16:08:00,75.0,25.8,0.00,SE,135,0.0,0.0,16,-99.99,,---,-99.99,VWS V14.01,2013-08-06 23:08:00,
2013-08-06 16:13:00,75.0,25.8,0.00,SSW,208,0.0,0.0,16,-99.99,,---,-99.99,VWS V14.01,2013-08-06 23:13:00,
2013-08-06 16:18:00,75.0,25.8,0.00,South,183,0.0,0.0,16,-99.99,,---,-99.99,VWS V14.01,2013-08-06 23:18:00,
2013-08-06 16:23:00,75.0,25.8,0.00,SW,223,0.0,0.0,16,-99.99,,---,-99.99,VWS V14.01,2013-08-06 23:23:00,
2013-08-06 16:28:00,75.0,25.8,0.00,SSW,198,0.0,0.0,16,-99.99,,---,-99.99,VWS V14.01,2013-08-06 23:28:00,
2013-08-06 16:33:00,75.0,25.8,0.00,South,181,0.0,0.0,16,-99.99,,---,-99.99,VWS V14.01,2013-08-06 23:33:00,
2013-08-06 16:38:00,70.3,18.9,0.00,SSW,211,0.0,0.0,14,-99.99,,---,-99.99,VWS V14.01,2013-08-06 23:38:00,
2013-08-06 16:43:00,70.3,18.9,0.00,SSW,213,0.0,0.0,14,-99.99,,---,-99.99,VWS V14.01,2013-08-06 23:43:00,
2013-08-06 16:48:00,70.3,18.9,0.00,SSW,205,0.0,0.0,14,-99.99,,---,-99.99,VWS V14.01,2013-08-06 23:48:00,
2013-08-06 16:53:00,70.3,18.9,0.00,SSW,200,0.0,0.0,14,-99.99,,---,-99.99,VWS V14.01,2013-08-06 23:53:00,
2013-08-06 16:58:00,70.3,18.9,0.00,SSE,159,0.0,0.0,14,-99.99,,---,-99.99,VWS V14.01,2013-08-06 23:58:00,
2013-08-06 17:03:00,70.3,18.9,0.00,South,176,0.0,0.0,14,-99.99,,---,-99.99,VWS V14.01,2013-08-07 00:03:00,
2013-08-06 17:08:00,70.3,18.9,0.00,SE,128,0.0,0.0,14,-99.99,,---,-99.99,VWS V14.01,2013-08-07 00:08:00,
2013-08-06 17:13:00,71.4,19.8,0.00,SSE,162,0.0,0.0,14,-99.99,,---,-99.99,VWS V14.01,2013-08-07 00:13:00,
2013-08-06 17:18:00,71.4,19.8,0.00,SSW,196,0.0,0.0,14,-99.99,,---,-99.99,VWS V14.01,2013-08-07 00:18:00,
2013-08-06 17:23:00,71.4,19.8,0.00,SSW,196,0.0,0.0,14,-99.99,,---,-99.99,VWS V14.01,2013-08-07 00:23:00,
2013-08-06 17:28:00,71.4,19.8,0.00,SSW,203,0.0,0.0,14,-99.99,,---,-99.99,VWS V14.01,2013-08-07 00:28:00,
2013-08-06 17:33:00,71.4,19.8,0.00,South,181,0.0,0.0,14,-99.99,,---,-99.99,VWS V14.01,2013-08-07 00:33:00,
2013-08-06 17:38:00,71.4,19.8,0.00,South,190,0.0,0.0,14,-99.99,,---,-99.99,VWS V14.01,2013-08-07 00:38:00,
2013-08-06 17:43:00,71.4,19.8,0.00,SSE,159,0.0,0.0,14,-99.99,,---,-99.99,VWS V14.01,2013-08-07 00:43:00,
2013-08-06 17:48:00,69.4,19.8,0.00,SSE,167,0.0,0.0,15,-99.99,,---,-99.99,VWS V14.01,2013-08-07 00:48:00,
2013-08-06 17:53:00,69.4,19.8,0.00,South,179,0.0,0.0,15,-99.99,,---,-99.99,VWS V14.01,2013-08-07 00:53:00,
2013-08-06 17:58:00,69.4,19.8,0.00,South,179,0.0,0.0,15,-99.99,,---,-99.99,VWS V14.01,2013-08-07 00:58:00,
2013-08-06 18:03:00,69.4,19.8,0.00,South,186,0.0,0.0,15,-99.99,,---,-99.99,VWS V14.01,2013-08-07 01:03:00,
2013-08-06 18:08:00,69.4,19.8,0.00,South,178,0.0,0.0,15,-99.99,,---,-99.99,VWS V14.01,2013-08-07 01:08:00,
2013-08-06 18:13:00,69.4,19.8,0.00,SSW,194,0.0,0.0,15,-99.99,,---,-99.99,VWS V14.01,2013-08-07 01:13:00,
2013-08-06 18:18:00,69.4,19.8,0.00,SSE,168,0.0,0.0,15,-99.99,,---,-99.99,VWS V14.01,2013-08-07 01:18:00,
2013-08-06 18:23:00,69.4,19.8,0.00,SSE,168,0.0,0.0,15,-99.99,,---,-99.99,VWS V14.01,2013-08-07 01:23:00,
2013-08-06 18:28:00,69.4,19.8,0.00,SSW,192,0.0,0.0,15,-99.99,,---,-99.99,VWS V14.01,2013-08-07 01:28:00,
2013-08-06 18:33:00,69.4,19.8,0.00,SSW,192,0.0,0.0,15,-99.99,,---,-99.99,VWS V14.01,2013-08-07 01:33:00,
2013-08-06 18:38:00,69.4,19.8,0.00,South,190,0.0,0.0,15,-99.99,,---,-99.99,VWS V14.01,2013-08-07 01:38:00,
2013-08-06 18:43:00,69.4,19.8,0.00,SSW,202,0.0,0.0,15,-99.99,,---,-99.99,VWS V14.01,2013-08-07 01:43:00,
2013-08-06 18:48:00,69.4,19.8,0.00,SSW,194,0.0,0.0,15,-99.99,,---,-99.99,VWS V14.01,2013-08-07 01:48:00,
2013-08-06 18:53:00,69.4,19.8,0.00,SSW,203,0.0,0.0,15,-99.99,,---,-99.99,VWS V14.01,2013-08-07 01:53:00,
2013-08-06 18:59:00,69.4,19.8,0.00,SSW,203,0.0,0.0,15,-99.99,,---,-99.99,VWS V14.01,2013-08-07 01:59:00,
2013-08-06 19:04:00,69.4,19.8,0.00,SSW,194,0.0,0.0,15,-99.99,,---,-99.99,VWS V14.01,2013-08-07 02:04:00,
2013-08-06 19:09:00,69.4,19.8,0.00,SSW,196,0.0,0.0,15,-99.99,,---,-99.99,VWS V14.01,2013-08-07 02:09:00,
2013-08-06 19:14:00,69.4,19.8,0.00,South,181,0.0,0.0,15,-99.99,,---,-99.99,VWS V14.01,2013-08-07 02:14:00,
2013-08-06 19:19:00,69.4,19.8,0.00,South,190,0.0,0.0,15,-99.99,,---,-99.99,VWS V14.01,2013-08-07 02:19:00,
2013-08-06 19:24:00,69.4,19.8,0.00,South,190,0.0,0.0,15,-99.99,,---,-99.99,VWS V14.01,2013-08-07 02:24:00,
2013-08-06 19:29:00,69.4,19.8,0.00,South,190,0.0,0.0,15,-99.99,,---,-99.99,VWS V14.01,2013-08-07 02:29:00,
2013-08-06 19:34:00,69.4,19.8,0.00,South,190,0.0,0.0,15,-99.99,,---,-99.99,VWS V14.01,2013-08-07 02:34:00,
2013-08-06 19:39:00,69.4,19.8,0.00,SSW,213,0.0,0.0,15,-99.99,,---,-99.99,VWS V14.01,2013-08-07 02:39:00,
2013-08-06 19:44:00,69.4,19.8,0.00,SSW,213,0.0,0.0,15,-99.99,,---,-99.99,VWS V14.01,2013-08-07 02:44:00,
2013-08-06 19:49:00,69.4,19.8,0.00,SSW,213,0.0,0.0,15,-99.99,,---,-99.99,VWS V14.01,2013-08-07 02:49:00,
2013-08-06 19:54:00,69.4,19.8,0.00,SSW,213,0.0,0.0,15,-99.99,,---,-99.99,VWS V14.01,2013-08-07 02:54:00,
2013-08-06 19:59:00,69.4,19.8,0.00,SSW,213,0.0,0.0,15,-99.99,,---,-99.99,VWS V14.01,2013-08-07 02:59:00,
2013-08-06 20:04:00,69.4,19.8,0.00,South,190,0.0,0.0,15,-99.99,,---,-99.99,VWS V14.01,2013-08-07 03:04:00,
2013-08-06 20:09:00,69.4,19.8,0.00,South,190,0.0,0.0,15,-99.99,,---,-99.99,VWS V14.01,2013-08-07 03:09:00,
2013-08-06 20:14:00,69.4,19.8,0.00,South,190,0.0,0.0,15,-99.99,,---,-99.99,VWS V14.01,2013-08-07 03:14:00,
2013-08-06 20:19:00,69.4,19.8,0.00,SW,226,0.0,0.0,15,-99.99,,---,-99.99,VWS V14.01,2013-08-07 03:19:00,
2013-08-06 20:24:00,69.4,19.8,0.00,SW,226,0.0,0.0,15,-99.99,,---,-99.99,VWS V14.01,2013-08-07 03:24:00,
2013-08-06 20:29:00,69.4,19.8,0.00,SW,224,0.0,0.0,15,-99.99,,---,-99.99,VWS V14.01,2013-08-07 03:29:00,
2013-08-06 20:34:00,69.4,19.8,0.00,SW,224,0.0,0.0,15,-99.99,,---,-99.99,VWS V14.01,2013-08-07 03:34:00,
2013-08-06 20:39:00,69.4,19.8,0.00,SW,214,0.0,0.0,15,-99.99,,---,-99.99,VWS V14.01,2013-08-07 03:39:00,
2013-08-06 20:44:00,69.4,19.8,0.00,SSW,195,0.0,0.0,15,-99.99,,---,-99.99,VWS V14.01,2013-08-07 03:44:00,
2013-08-06 20:49:00,69.4,19.8,0.00,SSW,195,0.0,0.0,15,-99.99,,---,-99.99,VWS V14.01,2013-08-07 03:49:00,
2013-08-06 20:54:00,69.4,19.8,0.00,SSW,207,0.0,0.0,15,-99.99,,---,-99.99,VWS V14.01,2013-08-07 03:54:00,
2013-08-06 20:59:00,69.4,19.8,0.00,SSW,207,0.0,0.0,15,-99.99,,---,-99.99,VWS V14.01,2013-08-07 03:59:00,
2013-08-06 21:01:00,69.4,19.8,0.00,South,186,0.0,0.0,15,-99.99,,---,-99.99,VWS V14.01,2013-08-07 04:01:00,
2013-08-06 21:06:00,69.4,19.8,0.00,South,186,0.0,0.0,15,-99.99,,---,-99.99,VWS V14.01,2013-08-07 04:06:00,
2013-08-06 21:11:00,69.4,19.8,0.00,South,186,0.0,0.0,15,-99.99,,---,-99.99,VWS V14.01,2013-08-07 04:11:00,
2013-08-06 21:16:00,69.4,19.8,0.00,South,186,0.0,0.0,15,-99.99,,---,-99.99,VWS V14.01,2013-08-07 04:16:00,
2013-08-06 21:21:00,69.4,19.8,0.00,SSW,201,0.0,0.0,15,-99.99,,---,-99.99,VWS V14.01,2013-08-07 04:21:00,
2013-08-06 21:26:00,69.4,19.8,0.00,SSW,213,0.0,0.0,15,-99.99,,---,-99.99,VWS V14.01,2013-08-07 04:26:00,
2013-08-06 21:31:00,69.4,19.8,0.00,SSW,213,0.0,0.0,15,-99.99,,---,-99.99,VWS V14.01,2013-08-07 04:31:00,
2013-08-06 21:36:00,69.4,19.8,0.00,South,191,0.0,0.0,15,-99.99,,---,-99.99,VWS V14.01,2013-08-07 04:36:00,
2013-08-06 21:41:00,69.4,19.8,0.00,South,191,0.0,0.0,15,-99.99,,---,-99.99,VWS V14.01,2013-08-07 04:41:00,
2013-08-06 21:46:00,69.4,19.8,0.00,SSW,192,0.0,0.0,15,-99.99,,---,-99.99,VWS V14.01,2013-08-07 04:46:00,
2013-08-06 21:51:00,69.4,19.8,0.00,SSW,192,0.0,0.0,15,-99.99,,---,-99.99,VWS V14.01,2013-08-07 04:51:00,
2013-08-06 21:56:00,69.4,19.8,0.00,South,186,0.0,0.0,15,-99.99,,---,-99.99,VWS V14.01,2013-08-07 04:56:00,
2013-08-06 22:01:00,69.4,19.8,0.00,South,180,0.0,0.0,15,-99.99,,---,-99.99,VWS V14.01,2013-08-07 05:01:00,
2013-08-06 22:06:00,69.4,19.8,0.00,South,180,0.0,0.0,15,-99.99,,---,-99.99,VWS V14.01,2013-08-07 05:06:00,
2013-08-06 22:12:00,69.4,19.8,0.00,South,182,0.0,0.0,15,-99.99,,---,-99.99,VWS V14.01,2013-08-07 05:12:00,
2013-08-06 22:17:00,69.4,19.8,0.00,South,182,0.0,0.0,15,-99.99,,---,-99.99,VWS V14.01,2013-08-07 05:17:00,
2013-08-06 22:22:00,69.4,19.8,0.00,SSW,197,0.0,0.0,15,-99.99,,---,-99.99,VWS V14.01,2013-08-07 05:22:00,
2013-08-06 22:27:00,69.4,19.8,0.00,South,186,0.0,0.0,15,-99.99,,---,-99.99,VWS V14.01,2013-08-07 05:27:00,
2013-08-06 22:32:00,69.4,19.8,0.00,South,186,0.0,0.0,15,-99.99,,---,-99.99,VWS V14.01,2013-08-07 05:32:00,
2013-08-06 22:37:00,69.4,19.8,0.00,South,187,0.0,0.0,15,-99.99,,---,-99.99,VWS V14.01,2013-08-07 05:37:00,
2013-08-06 22:42:00,69.4,19.8,0.00,South,187,0.0,0.0,15,-99.99,,---,-99.99,VWS V14.01,2013-08-07 05:42:00,
2013-08-06 22:47:00,69.4,19.8,0.00,South,189,0.0,0.0,15,-99.99,,---,-99.99,VWS V14.01,2013-08-07 05:47:00,
2013-08-06 22:52:00,69.4,19.8,0.00,South,189,0.0,0.0,15,-99.99,,---,-99.99,VWS V14.01,2013-08-07 05:52:00,
2013-08-06 22:57:00,69.4,19.8,0.00,SSW,194,0.0,0.0,15,-99.99,,---,-99.99,VWS V14.01,2013-08-07 05:57:00,
2013-08-06 23:02:00,69.4,19.8,0.00,SSW,198,0.0,0.0,15,-99.99,,---,-99.99,VWS V14.01,2013-08-07 06:02:00,
2013-08-06 23:07:00,69.4,19.8,0.00,SSW,198,0.0,0.0,15,-99.99,,---,-99.99,VWS V14.01,2013-08-07 06:07:00,
2013-08-06 23:12:00,69.4,19.8,0.00,SSW,204,0.0,0.0,15,-99.99,,---,-99.99,VWS V14.01,2013-08-07 06:12:00,
2013-08-06 23:17:00,69.4,19.8,0.00,SSW,204,0.0,0.0,15,-99.99,,---,-99.99,VWS V14.01,2013-08-07 06:17:00,
2013-08-06 23:22:00,69.4,19.8,0.00,SSW,208,0.0,0.0,15,-99.99,,---,-99.99,VWS V14.01,2013-08-07 06:22:00,
2013-08-06 23:27:00,69.4,19.8,0.00,SSW,208,0.0,0.0,15,-99.99,,---,-99.99,VWS V14.01,2013-08-07 06:27:00,
2013-08-06 23:32:00,69.4,19.8,0.00,SSW,196,0.0,0.0,15,-99.99,,---,-99.99,VWS V14.01,2013-08-07 06:32:00,
2013-08-06 23:37:00,69.4,19.8,0.00,South,179,0.0,0.0,15,-99.99,,---,-99.99,VWS V14.01,2013-08-07 06:37:00,
2013-08-06 23:42:00,69.4,19.8,0.00,South,179,0.0,0.0,15,-99.99,,---,-99.99,VWS V14.01,2013-08-07 06:42:00,
2013-08-06 23:47:00,69.4,19.8,0.00,SSW,201,0.0,0.0,15,-99.99,,---,-99.99,VWS V14.01,2013-08-07 06:47:00,
2013-08-06 23:52:00,69.4,19.8,0.00,SSW,201,0.0,0.0,15,-99.99,,---,-99.99,VWS V14.01,2013-08-07 06:52:00,
2013-08-06 23:57:00,69.4,19.8,0.00,South,182,0.0,0.0,15,-99.99,,---,-99.99,VWS V14.01,2013-08-07 06:57:00,